Time,TemperatureF,DewpointF,PressureIn,WindDirection,WindDirectionDegrees,WindSpeedMPH,WindSpeedGustMPH,Humidity,HourlyPrecipIn,Conditions,Clouds,dailyrainin,SolarRadiationWatts/m^2,SoftwareType,DateUTC
2013-01-07 00:01:00,42.1,31.6,30.19,WNW,302,0.0,-999.0,66,0.00,,,0.02,0,Wunderground v.1.15,2013-01-07 05:01:00,
2013-01-07 00:02:00,42.2,31.6,30.19,WNW,302,0.0,-999.0,66,0.00,,,0.00,0,Wunderground v.1.15,2013-01-07 05:02:00,
2013-01-07 00:04:00,42.2,31.6,30.19,WNW,302,0.0,-999.0,66,0.00,,,0.00,0,Wunderground v.1.15,2013-01-07 05:04:00,
2013-01-07 00:09:00,42.3,31.7,30.19,WNW,283,1.0,-999.0,66,0.00,,,0.00,0,Wunderground v.1.15,2013-01-07 05:09:00,
2013-01-07 00:14:00,42.4,31.8,30.19,WNW,283,1.0,-999.0,66,0.00,,,0.00,0,Wunderground v.1.15,2013-01-07 05:14:00,
2013-01-07 00:19:00,42.4,31.8,30.19,WNW,283,0.0,-999.0,66,0.00,,,0.00,0,Wunderground v.1.15,2013-01-07 05:19:00,
2013-01-07 00:25:00,42.5,31.9,30.19,WNW,283,0.0,-999.0,66,0.00,,,0.00,0,Wunderground v.1.15,2013-01-07 05:25:00,
2013-01-07 00:30:00,42.5,31.9,30.19,WNW,283,0.0,-999.0,66,0.00,,,0.00,0,Wunderground v.1.15,2013-01-07 05:30:00,
2013-01-07 00:35:00,42.5,31.9,30.19,WNW,283,0.0,-999.0,66,0.00,,,0.00,0,Wunderground v.1.15,2013-01-07 05:35:00,
2013-01-07 00:41:00,42.6,31.7,30.19,WNW,283,0.0,-999.0,65,0.00,,,0.00,0,Wunderground v.1.15,2013-01-07 05:41:00,
2013-01-07 00:46:00,42.6,32.0,30.19,WNW,283,0.0,-999.0,66,0.00,,,0.00,0,Wunderground v.1.15,2013-01-07 05:46:00,
2013-01-07 00:51:00,42.5,31.9,30.19,WNW,283,0.0,-999.0,66,0.00,,,0.00,0,Wunderground v.1.15,2013-01-07 05:51:00,
2013-01-07 00:57:00,42.5,31.9,30.19,WNW,283,0.0,-999.0,66,0.00,,,0.00,0,Wunderground v.1.15,2013-01-07 05:57:00,
2013-01-07 01:02:00,42.5,31.6,30.19,WNW,283,0.0,-999.0,65,0.00,,,0.00,0,Wunderground v.1.15,2013-01-07 06:02:00,
2013-01-07 01:07:00,42.5,31.6,30.19,WNW,283,0.0,-999.0,65,0.00,,,0.00,0,Wunderground v.1.15,2013-01-07 06:07:00,
2013-01-07 01:12:00,42.4,31.8,30.19,WNW,283,0.0,-999.0,66,0.00,,,0.00,0,Wunderground v.1.15,2013-01-07 06:12:00,
2013-01-07 01:18:00,42.2,31.6,30.19,WNW,283,0.0,-999.0,66,0.00,,,0.00,0,Wunderground v.1.15,2013-01-07 06:18:00,
2013-01-07 01:23:00,42.0,31.8,30.19,WNW,283,0.0,-999.0,67,0.00,,,0.00,0,Wunderground v.1.15,2013-01-07 06:23:00,
2013-01-07 01:29:00,41.7,31.5,30.19,WNW,283,0.0,-999.0,67,0.00,,,0.00,0,Wunderground v.1.15,2013-01-07 06:29:00,
2013-01-07 01:34:00,41.4,31.3,30.19,WNW,283,0.0,-999.0,67,0.00,,,0.00,0,Wunderground v.1.15,2013-01-07 06:34:00,
2013-01-07 01:39:00,41.1,31.3,30.19,WNW,283,0.0,-999.0,68,0.00,,,0.00,0,Wunderground v.1.15,2013-01-07 06:39:00,
2013-01-07 01:44:00,40.6,31.2,30.19,WNW,283,0.0,-999.0,69,0.00,,,0.00,0,Wunderground v.1.15,2013-01-07 06:44:00,
2013-01-07 01:50:00,40.3,30.9,30.20,WNW,283,0.0,-999.0,69,0.00,,,0.00,0,Wunderground v.1.15,2013-01-07 06:50:00,
2013-01-07 01:55:00,39.9,30.9,30.20,WNW,283,0.0,-999.0,70,0.00,,,0.00,0,Wunderground v.1.15,2013-01-07 06:55:00,
2013-01-07 02:01:00,39.4,30.4,30.20,WNW,283,0.0,-999.0,70,0.00,,,0.00,0,Wunderground v.1.15,2013-01-07 07:01:00,
2013-01-07 02:07:00,39.0,30.4,30.20,WNW,283,0.0,-999.0,71,0.00,,,0.00,0,Wunderground v.1.15,2013-01-07 07:07:00,
2013-01-07 02:12:00,38.5,29.9,30.20,WNW,283,0.0,-999.0,71,0.00,,,0.00,0,Wunderground v.1.15,2013-01-07 07:12:00,
2013-01-07 02:18:00,38.1,29.9,30.20,WNW,283,0.0,-999.0,72,0.00,,,0.00,0,Wunderground v.1.15,2013-01-07 07:18:00,
2013-01-07 02:23:00,37.6,29.7,30.20,WNW,283,0.0,-999.0,73,0.00,,,0.00,0,Wunderground v.1.15,2013-01-07 07:23:00,
2013-01-07 02:28:00,37.1,29.6,30.20,WNW,283,0.0,-999.0,74,0.00,,,0.00,0,Wunderground v.1.15,2013-01-07 07:28:00,
2013-01-07 02:34:00,36.7,29.2,30.20,WNW,283,0.0,-999.0,74,0.00,,,0.00,0,Wunderground v.1.15,2013-01-07 07:34:00,
2013-01-07 02:39:00,36.3,29.1,30.21,WNW,283,0.0,-999.0,75,0.00,,,0.00,0,Wunderground v.1.15,2013-01-07 07:39:00,
2013-01-07 02:45:00,35.9,29.1,30.21,WNW,283,0.0,-999.0,76,0.00,,,0.00,0,Wunderground v.1.15,2013-01-07 07:45:00,
2013-01-07 02:50:00,35.8,29.0,30.21,WNW,283,0.0,-999.0,76,0.00,,,0.00,0,Wunderground v.1.15,2013-01-07 07:50:00,
2013-01-07 02:56:00,35.4,28.9,30.22,WNW,283,0.0,-999.0,77,0.00,,,0.00,0,Wunderground v.1.15,2013-01-07 07:56:00,
2013-01-07 03:01:00,35.2,28.7,30.21,WNW,283,0.0,-999.0,77,0.00,,,0.00,0,Wunderground v.1.15,2013-01-07 08:01:00,
2013-01-07 03:07:00,35.0,28.5,30.22,WNW,283,0.0,-999.0,77,0.00,,,0.00,0,Wunderground v.1.15,2013-01-07 08:07:00,
2013-01-07 03:12:00,34.7,28.5,30.21,WNW,283,0.0,-999.0,78,0.00,,,0.00,0,Wunderground v.1.15,2013-01-07 08:12:00,
2013-01-07 03:17:00,34.4,28.2,30.21,WNW,283,0.0,-999.0,78,0.00,,,0.00,0,Wunderground v.1.15,2013-01-07 08:17:00,
2013-01-07 03:23:00,34.3,28.5,30.22,WNW,283,0.0,-999.0,79,0.00,,,0.00,0,Wunderground v.1.15,2013-01-07 08:23:00,
2013-01-07 03:28:00,34.0,28.2,30.22,WNW,283,0.0,-999.0,79,0.00,,,0.00,0,Wunderground v.1.15,2013-01-07 08:28:00,
2013-01-07 03:34:00,33.7,27.9,30.22,WNW,283,0.0,-999.0,79,0.00,,,0.00,0,Wunderground v.1.15,2013-01-07 08:34:00,
2013-01-07 03:39:00,33.5,28.0,30.22,WNW,283,0.0,-999.0,80,0.00,,,0.00,0,Wunderground v.1.15,2013-01-07 08:39:00,
2013-01-07 03:45:00,33.3,27.8,30.23,WNW,283,0.0,-999.0,80,0.00,,,0.00,0,Wunderground v.1.15,2013-01-07 08:45:00,
2013-01-07 03:50:00,33.0,27.8,30.23,WNW,283,0.0,-999.0,81,0.00,,,0.00,0,Wunderground v.1.15,2013-01-07 08:50:00,
2013-01-07 03:56:00,32.8,27.6,30.23,WNW,283,0.0,-999.0,81,0.00,,,0.00,0,Wunderground v.1.15,2013-01-07 08:56:00,
2013-01-07 04:01:00,32.6,27.7,30.23,WNW,283,0.0,-999.0,82,0.00,,,0.00,0,Wunderground v.1.15,2013-01-07 09:01:00,
2013-01-07 04:07:00,32.6,27.7,30.24,WNW,283,0.0,-999.0,82,0.00,,,0.00,0,Wunderground v.1.15,2013-01-07 09:07:00,
2013-01-07 04:12:00,32.9,28.3,30.23,WNW,283,0.0,-999.0,83,0.00,,,0.00,0,Wunderground v.1.15,2013-01-07 09:12:00,
2013-01-07 04:18:00,33.2,28.6,30.24,WNW,283,0.0,-999.0,83,0.00,,,0.00,0,Wunderground v.1.15,2013-01-07 09:18:00,
2013-01-07 04:23:00,33.5,28.6,30.24,WNW,283,0.0,-999.0,82,0.00,,,0.00,0,Wunderground v.1.15,2013-01-07 09:23:00,
2013-01-07 04:29:00,33.6,28.7,30.24,WNW,283,0.0,-999.0,82,0.00,,,0.00,0,Wunderground v.1.15,2013-01-07 09:29:00,
2013-01-07 04:34:00,33.6,28.4,30.25,WNW,283,0.0,-999.0,81,0.00,,,0.00,0,Wunderground v.1.15,2013-01-07 09:34:00,
2013-01-07 04:40:00,33.7,28.5,30.25,WNW,283,0.0,-999.0,81,0.00,,,0.00,0,Wunderground v.1.15,2013-01-07 09:40:00,
2013-01-07 04:45:00,33.7,28.2,30.25,WNW,283,0.0,-999.0,80,0.00,,,0.00,0,Wunderground v.1.15,2013-01-07 09:45:00,
2013-01-07 04:51:00,33.8,28.3,30.25,WNW,283,0.0,-999.0,80,0.00,,,0.00,0,Wunderground v.1.15,2013-01-07 09:51:00,
2013-01-07 04:56:00,33.8,28.3,30.25,WNW,283,0.0,-999.0,80,0.00,,,0.00,0,Wunderground v.1.15,2013-01-07 09:56:00,
2013-01-07 05:02:00,33.8,28.3,30.26,WNW,283,0.0,-999.0,80,0.00,,,0.00,0,Wunderground v.1.15,2013-01-07 10:02:00,
2013-01-07 05:08:00,33.8,28.0,30.26,WNW,283,0.0,-999.0,79,0.00,,,0.00,0,Wunderground v.1.15,2013-01-07 10:08:00,
2013-01-07 05:13:00,33.8,28.3,30.26,WNW,283,0.0,-999.0,80,0.00,,,0.00,0,Wunderground v.1.15,2013-01-07 10:13:00,
2013-01-07 05:19:00,33.8,28.0,30.27,WNW,283,0.0,-999.0,79,0.00,,,0.00,0,Wunderground v.1.15,2013-01-07 10:19:00,
2013-01-07 05:24:00,34.0,28.2,30.27,WNW,283,0.0,-999.0,79,0.00,,,0.00,0,Wunderground v.1.15,2013-01-07 10:24:00,
2013-01-07 05:30:00,34.3,28.5,30.27,WNW,283,0.0,-999.0,79,0.00,,,0.00,0,Wunderground v.1.15,2013-01-07 10:30:00,
2013-01-07 05:36:00,34.2,28.1,30.27,WNW,283,0.0,-999.0,78,0.00,,,0.00,0,Wunderground v.1.15,2013-01-07 10:36:00,
2013-01-07 05:41:00,34.3,28.2,30.27,WNW,283,0.0,-999.0,78,0.00,,,0.00,0,Wunderground v.1.15,2013-01-07 10:41:00,
2013-01-07 05:47:00,34.2,28.1,30.27,WNW,283,0.0,-999.0,78,0.00,,,0.00,0,Wunderground v.1.15,2013-01-07 10:47:00,
2013-01-07 05:53:00,34.1,27.6,30.27,WNW,283,0.0,-999.0,77,0.00,,,0.00,0,Wunderground v.1.15,2013-01-07 10:53:00,
2013-01-07 05:58:00,34.4,27.9,30.27,WNW,283,0.0,-999.0,77,0.00,,,0.00,0,Wunderground v.1.15,2013-01-07 10:58:00,
2013-01-07 06:04:00,34.4,27.6,30.28,WNW,283,0.0,-999.0,76,0.00,,,0.00,0,Wunderground v.1.15,2013-01-07 11:04:00,
2013-01-07 06:09:00,34.4,27.3,30.28,WNW,283,0.0,-999.0,75,0.00,,,0.00,0,Wunderground v.1.15,2013-01-07 11:09:00,
2013-01-07 06:15:00,34.5,27.4,30.29,WNW,283,0.0,-999.0,75,0.00,,,0.00,0,Wunderground v.1.15,2013-01-07 11:15:00,
2013-01-07 06:20:00,34.6,27.5,30.30,WNW,283,0.0,-999.0,75,0.00,,,0.00,0,Wunderground v.1.15,2013-01-07 11:20:00,
2013-01-07 06:26:00,34.7,27.3,30.30,WNW,283,0.0,-999.0,74,0.00,,,0.00,0,Wunderground v.1.15,2013-01-07 11:26:00,
2013-01-07 06:32:00,34.6,27.2,30.31,WNW,283,0.0,-999.0,74,0.00,,,0.00,0,Wunderground v.1.15,2013-01-07 11:32:00,
2013-01-07 06:38:00,34.5,27.1,30.31,WNW,283,0.0,-999.0,74,0.00,,,0.00,0,Wunderground v.1.15,2013-01-07 11:38:00,
2013-01-07 06:43:00,34.4,27.0,30.31,WNW,283,0.0,-999.0,74,0.00,,,0.00,0,Wunderground v.1.15,2013-01-07 11:43:00,
2013-01-07 06:49:00,34.4,27.0,30.32,WNW,283,0.0,-999.0,74,0.00,,,0.00,0,Wunderground v.1.15,2013-01-07 11:49:00,
2013-01-07 06:55:00,34.4,27.0,30.32,WNW,283,0.0,-999.0,74,0.00,,,0.00,0,Wunderground v.1.15,2013-01-07 11:55:00,
2013-01-07 07:00:00,34.3,26.9,30.32,WNW,283,0.0,-999.0,74,0.00,,,0.00,0,Wunderground v.1.15,2013-01-07 12:00:00,
2013-01-07 07:06:00,34.2,26.8,30.32,WNW,283,0.0,-999.0,74,0.00,,,0.00,0,Wunderground v.1.15,2013-01-07 12:06:00,
2013-01-07 07:11:00,34.2,26.8,30.32,WNW,283,0.0,-999.0,74,0.00,,,0.00,0,Wunderground v.1.15,2013-01-07 12:11:00,
2013-01-07 07:17:00,34.1,27.0,30.33,WNW,283,0.0,-999.0,75,0.00,,,0.00,0,Wunderground v.1.15,2013-01-07 12:17:00,
2013-01-07 07:23:00,33.9,26.5,30.33,WNW,283,0.0,-999.0,74,0.00,,,0.00,0,Wunderground v.1.15,2013-01-07 12:23:00,
2013-01-07 07:28:00,33.8,26.7,30.34,WNW,283,0.0,-999.0,75,0.00,,,0.00,0,Wunderground v.1.15,2013-01-07 12:28:00,
2013-01-07 07:34:00,33.5,26.4,30.34,WNW,283,0.0,-999.0,75,0.00,,,0.00,5,Wunderground v.1.15,2013-01-07 12:34:00,
2013-01-07 07:40:00,33.2,26.5,30.34,WNW,283,0.0,-999.0,76,0.00,,,0.00,9,Wunderground v.1.15,2013-01-07 12:40:00,
2013-01-07 07:45:00,32.7,26.0,30.35,WNW,283,0.0,-999.0,76,0.00,,,0.00,11,Wunderground v.1.15,2013-01-07 12:45:00,
2013-01-07 07:51:00,32.4,26.0,30.35,WNW,283,0.0,-999.0,77,0.00,,,0.00,14,Wunderground v.1.15,2013-01-07 12:51:00,
2013-01-07 07:56:00,32.1,26.0,30.35,WNW,283,0.0,-999.0,78,0.00,,,0.00,16,Wunderground v.1.15,2013-01-07 12:56:00,
2013-01-07 08:02:00,32.0,25.9,30.36,WNW,283,0.0,-999.0,78,0.00,,,0.00,19,Wunderground v.1.15,2013-01-07 13:02:00,
2013-01-07 08:07:00,32.2,26.1,30.36,WNW,283,0.0,-999.0,78,0.00,,,0.00,23,Wunderground v.1.15,2013-01-07 13:07:00,
2013-01-07 08:12:00,32.4,26.3,30.36,WNW,283,0.0,-999.0,78,0.00,,,0.00,21,Wunderground v.1.15,2013-01-07 13:12:00,
2013-01-07 08:17:00,32.5,26.4,30.37,WNW,283,0.0,-999.0,78,0.00,,,0.00,25,Wunderground v.1.15,2013-01-07 13:17:00,
2013-01-07 08:22:00,32.5,26.4,30.37,WNW,283,0.0,-999.0,78,0.00,,,0.00,26,Wunderground v.1.15,2013-01-07 13:22:00,
2013-01-07 08:28:00,32.6,26.5,30.37,WNW,283,0.0,-999.0,78,0.00,,,0.00,46,Wunderground v.1.15,2013-01-07 13:28:00,
2013-01-07 08:33:00,32.8,26.7,30.37,WNW,283,0.0,-999.0,78,0.00,,,0.00,54,Wunderground v.1.15,2013-01-07 13:33:00,
2013-01-07 08:38:00,33.1,27.0,30.37,WNW,283,0.0,-999.0,78,0.00,,,0.00,70,Wunderground v.1.15,2013-01-07 13:38:00,
2013-01-07 08:43:00,33.6,27.2,30.38,WNW,283,0.0,-999.0,77,0.00,,,0.00,113,Wunderground v.1.15,2013-01-07 13:43:00,
2013-01-07 08:49:00,35.0,27.9,30.38,NNW,348,0.0,-999.0,75,0.00,,,0.00,62,Wunderground v.1.15,2013-01-07 13:49:00,
2013-01-07 08:54:00,35.5,28.0,30.39,NNE,12,0.0,-999.0,74,0.00,,,0.00,144,Wunderground v.1.15,2013-01-07 13:54:00,
2013-01-07 08:59:00,36.6,28.4,30.39,East,86,1.0,-999.0,72,0.00,,,0.00,70,Wunderground v.1.15,2013-01-07 13:59:00,
2013-01-07 09:04:00,36.9,28.4,30.39,North,5,1.0,-999.0,71,0.00,,,0.00,54,Wunderground v.1.15,2013-01-07 14:04:00,
2013-01-07 09:10:00,37.1,28.2,30.40,NNW,344,2.0,-999.0,70,0.00,,,0.00,46,Wunderground v.1.15,2013-01-07 14:10:00,
2013-01-07 09:15:00,37.3,28.1,30.40,North,9,2.0,-999.0,69,0.00,,,0.00,42,Wunderground v.1.15,2013-01-07 14:15:00,
2013-01-07 09:20:00,37.5,28.2,30.41,North,355,2.0,-999.0,69,0.00,,,0.00,134,Wunderground v.1.15,2013-01-07 14:20:00,
2013-01-07 09:25:00,37.8,28.5,30.41,NNE,32,1.0,-999.0,69,0.00,,,0.00,149,Wunderground v.1.15,2013-01-07 14:25:00,
2013-01-07 09:31:00,38.4,28.8,30.42,NW,317,1.0,-999.0,68,0.00,,,0.00,151,Wunderground v.1.15,2013-01-07 14:31:00,
2013-01-07 09:37:00,38.8,28.8,30.42,WSW,244,2.0,-999.0,67,0.00,,,0.00,229,Wunderground v.1.15,2013-01-07 14:37:00,
2013-01-07 09:42:00,39.0,29.0,30.42,NW,318,1.0,-999.0,67,0.00,,,0.00,378,Wunderground v.1.15,2013-01-07 14:42:00,
2013-01-07 09:47:00,39.5,29.1,30.42,NNE,32,1.0,-999.0,66,0.00,,,0.00,392,Wunderground v.1.15,2013-01-07 14:47:00,
2013-01-07 09:52:00,39.3,28.9,30.42,ENE,59,2.0,-999.0,66,0.00,,,0.00,404,Wunderground v.1.15,2013-01-07 14:52:00,
2013-01-07 09:57:00,39.4,28.6,30.43,NNW,340,4.0,-999.0,65,0.00,,,0.00,417,Wunderground v.1.15,2013-01-07 14:57:00,
2013-01-07 10:03:00,39.7,28.9,30.43,North,11,3.0,-999.0,65,0.00,,,0.00,431,Wunderground v.1.15,2013-01-07 15:03:00,
2013-01-07 10:08:00,40.1,29.3,30.43,NNE,19,2.0,-999.0,65,0.00,,,0.00,441,Wunderground v.1.15,2013-01-07 15:08:00,
2013-01-07 10:13:00,40.2,29.0,30.42,North,355,2.0,-999.0,64,0.00,,,0.00,454,Wunderground v.1.15,2013-01-07 15:13:00,
2013-01-07 10:19:00,40.5,29.3,30.43,NNW,341,3.0,-999.0,64,0.00,,,0.00,464,Wunderground v.1.15,2013-01-07 15:19:00,
2013-01-07 10:24:00,40.5,29.3,30.42,NNW,336,3.0,-999.0,64,0.00,,,0.00,475,Wunderground v.1.15,2013-01-07 15:24:00,
2013-01-07 10:29:00,40.7,29.5,30.43,East,80,2.0,-999.0,64,0.00,,,0.00,483,Wunderground v.1.15,2013-01-07 15:29:00,
2013-01-07 10:35:00,41.3,29.6,30.42,NW,322,1.0,-999.0,63,0.00,,,0.00,497,Wunderground v.1.15,2013-01-07 15:35:00,
2013-01-07 10:40:00,42.1,30.0,30.43,ENE,69,1.0,-999.0,62,0.00,,,0.00,504,Wunderground v.1.15,2013-01-07 15:40:00,
2013-01-07 10:45:00,42.2,30.1,30.42,NNW,345,1.0,-999.0,62,0.00,,,0.00,510,Wunderground v.1.15,2013-01-07 15:45:00,
2013-01-07 10:50:00,41.8,29.7,30.43,NNW,338,2.0,-999.0,62,0.00,,,0.00,522,Wunderground v.1.15,2013-01-07 15:50:00,
2013-01-07 10:56:00,42.2,29.7,30.42,NNW,336,2.0,-999.0,61,0.00,,,0.00,527,Wunderground v.1.15,2013-01-07 15:56:00,
2013-01-07 11:01:00,42.4,29.9,30.42,NNE,15,2.0,-999.0,61,0.00,,,0.00,534,Wunderground v.1.15,2013-01-07 16:01:00,
2013-01-07 11:06:00,42.5,29.6,30.42,WNW,284,2.0,-999.0,60,0.00,,,0.00,541,Wunderground v.1.15,2013-01-07 16:06:00,
2013-01-07 11:12:00,43.0,30.9,30.42,NE,34,1.0,-999.0,62,0.00,,,0.00,550,Wunderground v.1.15,2013-01-07 16:12:00,
2013-01-07 11:17:00,43.4,30.4,30.42,WNW,284,1.0,-999.0,60,0.00,,,0.00,555,Wunderground v.1.15,2013-01-07 16:17:00,
2013-01-07 11:22:00,43.6,30.6,30.42,WNW,294,1.0,-999.0,60,0.00,,,0.00,561,Wunderground v.1.15,2013-01-07 16:22:00,
2013-01-07 11:27:00,43.7,30.3,30.42,NNW,341,2.0,-999.0,59,0.00,,,0.00,566,Wunderground v.1.15,2013-01-07 16:27:00,
2013-01-07 11:33:00,43.6,30.2,30.41,WNW,298,2.0,-999.0,59,0.00,,,0.00,571,Wunderground v.1.15,2013-01-07 16:33:00,
2013-01-07 11:38:00,44.7,30.8,30.41,NE,55,1.0,-999.0,58,0.00,,,0.00,575,Wunderground v.1.15,2013-01-07 16:38:00,
2013-01-07 11:43:00,43.8,30.0,30.41,North,9,2.0,-999.0,58,0.00,,,0.00,580,Wunderground v.1.15,2013-01-07 16:43:00,
2013-01-07 11:49:00,44.2,30.8,30.41,NE,39,2.0,-999.0,59,0.00,,,0.00,584,Wunderground v.1.15,2013-01-07 16:49:00,
2013-01-07 11:54:00,44.3,30.9,30.40,NE,35,2.0,-999.0,59,0.00,,,0.00,582,Wunderground v.1.15,2013-01-07 16:54:00,
2013-01-07 11:59:00,44.4,30.5,30.40,NE,44,3.0,-999.0,58,0.00,,,0.00,589,Wunderground v.1.15,2013-01-07 16:59:00,
2013-01-07 12:05:00,44.7,30.4,30.40,East,101,2.0,-999.0,57,0.00,,,0.00,591,Wunderground v.1.15,2013-01-07 17:05:00,
2013-01-07 12:11:00,45.4,31.5,30.40,SE,143,2.0,-999.0,58,0.00,,,0.00,592,Wunderground v.1.15,2013-01-07 17:11:00,
2013-01-07 12:16:00,45.9,31.1,30.40,North,5,1.0,-999.0,56,0.00,,,0.00,591,Wunderground v.1.15,2013-01-07 17:16:00,
2013-01-07 12:21:00,46.4,32.4,30.40,NNW,344,1.0,-999.0,58,0.00,,,0.00,592,Wunderground v.1.15,2013-01-07 17:21:00,
2013-01-07 12:27:00,45.8,30.5,30.39,ENE,63,2.0,-999.0,55,0.00,,,0.00,591,Wunderground v.1.15,2013-01-07 17:27:00,
2013-01-07 12:32:00,45.7,31.3,30.39,NE,55,2.0,-999.0,57,0.00,,,0.00,589,Wunderground v.1.15,2013-01-07 17:32:00,
2013-01-07 12:37:00,45.8,31.4,30.39,East,96,1.0,-999.0,57,0.00,,,0.00,589,Wunderground v.1.15,2013-01-07 17:37:00,
2013-01-07 12:43:00,46.7,31.8,30.39,ESE,123,1.0,-999.0,56,0.00,,,0.00,587,Wunderground v.1.15,2013-01-07 17:43:00,
2013-01-07 12:48:00,46.5,31.2,30.39,North,351,1.0,-999.0,55,0.00,,,0.00,585,Wunderground v.1.15,2013-01-07 17:48:00,
2013-01-07 12:53:00,46.3,31.4,30.38,NE,35,1.0,-999.0,56,0.00,,,0.00,582,Wunderground v.1.15,2013-01-07 17:53:00,
2013-01-07 12:58:00,46.4,31.5,30.38,ENE,65,2.0,-999.0,56,0.00,,,0.00,577,Wunderground v.1.15,2013-01-07 17:58:00,
2013-01-07 13:04:00,46.5,31.6,30.38,NNE,30,2.0,-999.0,56,0.00,,,0.00,571,Wunderground v.1.15,2013-01-07 18:04:00,
2013-01-07 13:09:00,47.0,32.1,30.38,SSW,192,1.0,-999.0,56,0.00,,,0.00,571,Wunderground v.1.15,2013-01-07 18:09:00,
2013-01-07 13:14:00,47.4,32.0,30.37,ENE,74,1.0,-999.0,55,0.00,,,0.00,566,Wunderground v.1.15,2013-01-07 18:14:00,
2013-01-07 13:19:00,48.1,33.1,30.37,NE,44,1.0,-999.0,56,0.00,,,0.00,561,Wunderground v.1.15,2013-01-07 18:19:00,
2013-01-07 13:25:00,47.1,31.7,30.37,North,5,1.0,-999.0,55,0.00,,,0.00,554,Wunderground v.1.15,2013-01-07 18:25:00,
2013-01-07 13:30:00,47.4,32.0,30.37,NE,51,2.0,-999.0,55,0.00,,,0.00,548,Wunderground v.1.15,2013-01-07 18:30:00,
2013-01-07 13:35:00,48.1,32.2,30.37,NE,51,1.0,-999.0,54,0.00,,,0.00,540,Wunderground v.1.15,2013-01-07 18:35:00,
2013-01-07 13:40:00,47.9,32.5,30.37,SW,230,0.0,-999.0,55,0.00,,,0.00,534,Wunderground v.1.15,2013-01-07 18:40:00,
2013-01-07 13:45:00,48.7,32.8,30.37,SW,224,2.0,-999.0,54,0.00,,,0.00,529,Wunderground v.1.15,2013-01-07 18:45:00,
2013-01-07 13:51:00,48.4,32.0,30.37,SSW,196,2.0,-999.0,53,0.00,,,0.00,522,Wunderground v.1.15,2013-01-07 18:51:00,
2013-01-07 13:56:00,48.7,32.3,30.36,South,188,1.0,-999.0,53,0.00,,,0.00,513,Wunderground v.1.15,2013-01-07 18:56:00,
2013-01-07 14:01:00,48.8,32.9,30.37,South,187,1.0,-999.0,54,0.00,,,0.00,504,Wunderground v.1.15,2013-01-07 19:01:00,
2013-01-07 14:07:00,49.6,33.2,30.37,SE,139,1.0,-999.0,53,0.00,,,0.00,496,Wunderground v.1.15,2013-01-07 19:07:00,
2013-01-07 14:12:00,49.1,32.7,30.37,South,182,2.0,-999.0,53,0.00,,,0.00,483,Wunderground v.1.15,2013-01-07 19:12:00,
2013-01-07 14:17:00,48.7,32.8,30.37,SSE,160,2.0,-999.0,54,0.00,,,0.00,473,Wunderground v.1.15,2013-01-07 19:17:00,
2013-01-07 14:22:00,48.6,32.2,30.37,SSE,158,2.0,-999.0,53,0.00,,,0.00,464,Wunderground v.1.15,2013-01-07 19:22:00,
2013-01-07 14:27:00,48.8,32.4,30.37,SW,223,2.0,-999.0,53,0.00,,,0.00,454,Wunderground v.1.15,2013-01-07 19:27:00,
2013-01-07 14:33:00,49.0,32.6,30.37,South,169,1.0,-999.0,53,0.00,,,0.00,441,Wunderground v.1.15,2013-01-07 19:33:00,
2013-01-07 14:38:00,49.5,33.1,30.37,South,175,1.0,-999.0,53,0.00,,,0.00,427,Wunderground v.1.15,2013-01-07 19:38:00,
2013-01-07 14:43:00,49.3,32.9,30.37,SSW,204,1.0,-999.0,53,0.00,,,0.00,415,Wunderground v.1.15,2013-01-07 19:43:00,
2013-01-07 14:48:00,49.1,32.2,30.37,SE,130,2.0,-999.0,52,0.00,,,0.00,403,Wunderground v.1.15,2013-01-07 19:48:00,
2013-01-07 14:54:00,49.0,32.6,30.37,SSE,150,2.0,-999.0,53,0.00,,,0.00,392,Wunderground v.1.15,2013-01-07 19:54:00,
2013-01-07 14:59:00,48.8,32.4,30.37,SSE,150,1.0,-999.0,53,0.00,,,0.00,376,Wunderground v.1.15,2013-01-07 19:59:00,
2013-01-07 15:04:00,49.3,32.9,30.37,SW,221,1.0,-999.0,53,0.00,,,0.00,364,Wunderground v.1.15,2013-01-07 20:04:00,
2013-01-07 15:10:00,49.8,32.9,30.37,SW,219,1.0,-999.0,52,0.00,,,0.00,348,Wunderground v.1.15,2013-01-07 20:10:00,
2013-01-07 15:15:00,49.6,33.2,30.38,SW,218,1.0,-999.0,53,0.00,,,0.00,332,Wunderground v.1.15,2013-01-07 20:15:00,
2013-01-07 15:20:00,49.8,32.9,30.38,SW,218,1.0,-999.0,52,0.00,,,0.00,320,Wunderground v.1.15,2013-01-07 20:20:00,
2013-01-07 15:23:00,49.4,33.0,30.38,SW,218,1.0,-999.0,53,0.00,,,0.00,311,Wunderground v.1.15,2013-01-07 20:23:00,
2013-01-07 15:28:00,49.0,33.1,30.38,SW,218,0.0,-999.0,54,0.00,,,0.00,295,Wunderground v.1.15,2013-01-07 20:28:00,
2013-01-07 15:33:00,49.9,33.4,30.38,SW,218,0.0,-999.0,53,0.00,,,0.00,281,Wunderground v.1.15,2013-01-07 20:33:00,
2013-01-07 15:39:00,49.5,33.1,30.38,SW,217,1.0,-999.0,53,0.00,,,0.00,264,Wunderground v.1.15,2013-01-07 20:39:00,
2013-01-07 15:44:00,48.8,32.4,30.38,NNE,24,1.0,-999.0,53,0.00,,,0.00,246,Wunderground v.1.15,2013-01-07 20:44:00,
2013-01-07 15:49:00,48.9,33.0,30.39,NNE,24,1.0,-999.0,54,0.00,,,0.00,229,Wunderground v.1.15,2013-01-07 20:49:00,
2013-01-07 15:55:00,49.2,32.8,30.39,NNE,24,0.0,-999.0,53,0.00,,,0.00,207,Wunderground v.1.15,2013-01-07 20:55:00,
2013-01-07 16:00:00,48.8,32.9,30.39,NNE,24,0.0,-999.0,54,0.00,,,0.00,188,Wunderground v.1.15,2013-01-07 21:00:00,
2013-01-07 16:05:00,48.9,33.4,30.39,NNE,24,0.0,-999.0,55,0.00,,,0.00,171,Wunderground v.1.15,2013-01-07 21:05:00,
2013-01-07 16:11:00,48.7,32.8,30.39,East,82,0.0,-999.0,54,0.00,,,0.00,151,Wunderground v.1.15,2013-01-07 21:11:00,
2013-01-07 16:16:00,48.6,32.7,30.39,East,82,0.0,-999.0,54,0.00,,,0.00,132,Wunderground v.1.15,2013-01-07 21:16:00,
2013-01-07 16:21:00,48.8,33.3,30.39,East,82,0.0,-999.0,55,0.00,,,0.00,114,Wunderground v.1.15,2013-01-07 21:21:00,
2013-01-07 16:27:00,48.8,32.9,30.39,East,82,0.0,-999.0,54,0.00,,,0.00,95,Wunderground v.1.15,2013-01-07 21:27:00,
2013-01-07 16:32:00,48.7,32.8,30.39,East,82,0.0,-999.0,54,0.00,,,0.00,77,Wunderground v.1.15,2013-01-07 21:32:00,
2013-01-07 16:37:00,48.5,32.6,30.39,East,82,0.0,-999.0,54,0.00,,,0.00,63,Wunderground v.1.15,2013-01-07 21:37:00,
2013-01-07 16:43:00,48.2,32.3,30.39,East,82,0.0,-999.0,54,0.00,,,0.00,49,Wunderground v.1.15,2013-01-07 21:43:00,
2013-01-07 16:48:00,48.0,32.6,30.39,East,82,0.0,-999.0,55,0.00,,,0.00,37,Wunderground v.1.15,2013-01-07 21:48:00,
2013-01-07 16:54:00,47.8,32.4,30.39,East,82,0.0,-999.0,55,0.00,,,0.00,26,Wunderground v.1.15,2013-01-07 21:54:00,
2013-01-07 16:59:00,47.5,32.1,30.39,East,82,0.0,-999.0,55,0.00,,,0.00,19,Wunderground v.1.15,2013-01-07 21:59:00,
2013-01-07 17:04:00,47.3,32.4,30.39,East,82,0.0,-999.0,56,0.00,,,0.00,16,Wunderground v.1.15,2013-01-07 22:04:00,
2013-01-07 17:09:00,47.2,32.3,30.39,East,82,0.0,-999.0,56,0.00,,,0.00,12,Wunderground v.1.15,2013-01-07 22:09:00,
2013-01-07 17:15:00,47.0,32.5,30.40,East,82,0.0,-999.0,57,0.00,,,0.00,9,Wunderground v.1.15,2013-01-07 22:15:00,
2013-01-07 17:20:00,47.1,32.6,30.40,East,82,0.0,-999.0,57,0.00,,,0.00,5,Wunderground v.1.15,2013-01-07 22:20:00,
2013-01-07 17:26:00,47.1,32.6,30.39,East,82,0.0,-999.0,57,0.00,,,0.00,0,Wunderground v.1.15,2013-01-07 22:26:00,
2013-01-07 17:31:00,47.0,32.5,30.39,East,82,0.0,-999.0,57,0.00,,,0.00,0,Wunderground v.1.15,2013-01-07 22:31:00,
2013-01-07 17:36:00,46.8,32.4,30.39,East,82,0.0,-999.0,57,0.00,,,0.00,0,Wunderground v.1.15,2013-01-07 22:36:00,
2013-01-07 17:42:00,46.5,32.5,30.39,East,82,0.0,-999.0,58,0.00,,,0.00,0,Wunderground v.1.15,2013-01-07 22:42:00,
2013-01-07 17:47:00,46.3,32.7,30.39,East,82,0.0,-999.0,59,0.00,,,0.00,0,Wunderground v.1.15,2013-01-07 22:47:00,
2013-01-07 17:52:00,45.9,32.4,30.39,East,82,0.0,-999.0,59,0.00,,,0.00,0,Wunderground v.1.15,2013-01-07 22:52:00,
2013-01-07 17:58:00,45.6,32.1,30.40,East,82,0.0,-999.0,59,0.00,,,0.00,0,Wunderground v.1.15,2013-01-07 22:58:00,
2013-01-07 18:03:00,45.2,32.1,30.40,East,82,0.0,-999.0,60,0.00,,,0.00,0,Wunderground v.1.15,2013-01-07 23:03:00,
2013-01-07 18:08:00,45.0,31.9,30.40,East,82,0.0,-999.0,60,0.00,,,0.00,0,Wunderground v.1.15,2013-01-07 23:08:00,
2013-01-07 18:14:00,44.5,31.5,30.40,East,82,0.0,-999.0,60,0.00,,,0.00,0,Wunderground v.1.15,2013-01-07 23:14:00,
2013-01-07 18:19:00,44.2,31.6,30.40,East,82,0.0,-999.0,61,0.00,,,0.00,0,Wunderground v.1.15,2013-01-07 23:19:00,
2013-01-07 18:24:00,43.8,31.6,30.40,East,82,0.0,-999.0,62,0.00,,,0.00,0,Wunderground v.1.15,2013-01-07 23:24:00,
2013-01-07 18:29:00,43.3,31.1,30.40,East,82,0.0,-999.0,62,0.00,,,0.00,0,Wunderground v.1.15,2013-01-07 23:29:00,
2013-01-07 18:35:00,42.9,31.2,30.40,East,82,0.0,-999.0,63,0.00,,,0.00,0,Wunderground v.1.15,2013-01-07 23:35:00,
2013-01-07 18:40:00,42.5,31.2,30.41,East,82,0.0,-999.0,64,0.00,,,0.00,0,Wunderground v.1.15,2013-01-07 23:40:00,
2013-01-07 18:45:00,42.0,30.7,30.41,East,82,0.0,-999.0,64,0.00,,,0.00,0,Wunderground v.1.15,2013-01-07 23:45:00,
2013-01-07 18:50:00,41.7,30.4,30.41,East,82,0.0,-999.0,64,0.00,,,0.00,0,Wunderground v.1.15,2013-01-07 23:50:00,
2013-01-07 18:55:00,41.3,30.4,30.41,East,82,0.0,-999.0,65,0.00,,,0.00,0,Wunderground v.1.15,2013-01-07 23:55:00,
2013-01-07 19:01:00,40.9,30.4,30.41,East,82,0.0,-999.0,66,0.00,,,0.00,0,Wunderground v.1.15,2013-01-08 00:01:00,
2013-01-07 19:06:00,40.5,30.4,30.41,East,82,0.0,-999.0,67,0.00,,,0.00,0,Wunderground v.1.15,2013-01-08 00:06:00,
2013-01-07 19:11:00,40.2,29.7,30.41,East,82,0.0,-999.0,66,0.00,,,0.00,0,Wunderground v.1.15,2013-01-08 00:11:00,
2013-01-07 19:16:00,39.9,29.8,30.41,East,82,0.0,-999.0,67,0.00,,,0.00,0,Wunderground v.1.15,2013-01-08 00:16:00,
2013-01-07 19:22:00,39.4,29.7,30.42,East,82,0.0,-999.0,68,0.00,,,0.00,0,Wunderground v.1.15,2013-01-08 00:22:00,
2013-01-07 19:27:00,39.0,29.7,30.42,East,82,0.0,-999.0,69,0.00,,,0.00,0,Wunderground v.1.15,2013-01-08 00:27:00,
2013-01-07 19:32:00,38.8,29.5,30.42,East,82,0.0,-999.0,69,0.00,,,0.00,0,Wunderground v.1.15,2013-01-08 00:32:00,
2013-01-07 19:38:00,38.4,29.1,30.42,East,82,0.0,-999.0,69,0.00,,,0.00,0,Wunderground v.1.15,2013-01-08 00:38:00,
2013-01-07 19:43:00,38.2,29.3,30.42,East,82,0.0,-999.0,70,0.00,,,0.00,0,Wunderground v.1.15,2013-01-08 00:43:00,
2013-01-07 19:48:00,37.9,29.0,30.42,East,82,0.0,-999.0,70,0.00,,,0.00,0,Wunderground v.1.15,2013-01-08 00:48:00,
2013-01-07 19:53:00,37.6,29.0,30.42,East,82,0.0,-999.0,71,0.00,,,0.00,0,Wunderground v.1.15,2013-01-08 00:53:00,
2013-01-07 19:59:00,37.2,29.0,30.41,East,82,0.0,-999.0,72,0.00,,,0.00,0,Wunderground v.1.15,2013-01-08 00:59:00,
2013-01-07 20:04:00,37.0,28.8,30.41,East,82,0.0,-999.0,72,0.00,,,0.00,0,Wunderground v.1.15,2013-01-08 01:04:00,
2013-01-07 20:09:00,36.8,28.6,30.42,East,82,0.0,-999.0,72,0.00,,,0.00,0,Wunderground v.1.15,2013-01-08 01:09:00,
2013-01-07 20:15:00,36.6,28.8,30.42,East,82,0.0,-999.0,73,0.00,,,0.00,0,Wunderground v.1.15,2013-01-08 01:15:00,
2013-01-07 20:20:00,36.4,28.6,30.42,East,82,0.0,-999.0,73,0.00,,,0.00,0,Wunderground v.1.15,2013-01-08 01:20:00,
2013-01-07 20:25:00,36.2,28.4,30.41,East,82,0.0,-999.0,73,0.00,,,0.00,0,Wunderground v.1.15,2013-01-08 01:25:00,